Location: Ebendorf
(52.1827°N, 11.5706°E)
Time: 09:47:14
(UTC+00:00)

Cosmos 1300 - Pass Details

Date: 15 May 2021
Orbit: 510 x 512 km, 82.5° (Epoch: 20 June)

Event Time Altitude Azimuth Distance (km) Brightness Sun altitude
Rises 02:13:37 0° 343° (NNW) 2,642 6.7 -8.5°
Reaches altitude 10° 02:15:51 10° 335° (NNW) 1,750 5.7 -8.3°
Maximum altitude 02:19:23 37° 267° (W) 821 3.4 -7.9°
Drops below altitude 10° 02:22:54 10° 200° (SSW) 1,734 4.8 -7.5°
Enters shadow 02:23:38 - 196° (SSW) 2,013 5.2 -7.4°
